Weather History for Athens, GA

Change the Weather History Date:

Tuesday, January 29, 2013

  Actual Average Record
Temperature  
Mean Temperature 56 °F 44 °F  
Max Temperature 74 °F 55 °F 78 °F (1975)
Min Temperature 38 °F 34 °F 8 °F (1966)
Degree Days  
Heating Degree Days 9 21  
Month to date heating degree days 454 628  
Since 1 July heating degree days 1439 1718  
Growing Degree Days 5 (Base 50)    
Moisture  
Dew Point 48 °F    
Average Humidity 77    
Maximum Humidity 100    
Minimum Humidity 53    
Precipitation  
Precipitation T in 0.15 in 1.80 in (1891)
Month to date precipitation 3.67 3.76  
Year to date precipitation 3.67 3.76  
Snow  
Snow 0.00 in 0.00 in 0.00 in (2002)
Month to date snowfall 0.0 1.3  
Since 1 July snowfall 0.0 1.4  
Snow Depth -    
Sea Level Pressure  
Sea Level Pressure 30.20 in    
Wind  
Wind Speed 3 mph (SSE)    
Max Wind Speed 12 mph    
Max Gust Speed 17 mph    
Visibility 4 miles    
Events Rain    
T = Trace of Precipitation, MM = Missing Value Source: NWS Daily Summary

Daily Weather History Graph

Daily Weather History Graph

Search for Another Location

Airport:

Trip Planner

Search our weather history database for the weather conditions in past years. The results will help you decide how hot, cold, wet, or windy it might be!

Date:

Astronomy

Jan. 29, 2013 Rise Set
Actual Time 7:32 AM EST 6:01 PM EST
Civil Twilight 7:05 AM EST 6:27 PM EST
Nautical Twilight 6:35 AM EST 6:57 PM EST
Astronomical Twilight 6:06 AM EST 7:27 PM EST
Moon 8:45 PM EST (1/29) 8:37 AM EST (1/29)
Length of Visible Light 11h 21m
Length of Day
10h 29m
Waning Gibbous, 94% of the Moon is Illuminated
Jan 29
Waning Gibbous
Feb 3
Last Quarter
Feb 10
New
Feb 17
First Quarter
Feb 25
Full

Hourly Weather History & Observations

Time (EST) Temp. Windchill Dew Point Humidity Pressure Visibility Wind Dir Wind Speed Gust Speed Precip Events Conditions
12:10 AM 42.8 °F - 39.2 °F 87% 30.29 in 2.0 mi Calm Calm - N/A   Clear
12:29 AM 41.0 °F - 39.2 °F 93% 30.28 in 1.8 mi Calm Calm - N/A   Clear
12:38 AM 41.0 °F - 39.2 °F 93% 30.28 in 2.0 mi Calm Calm - N/A   Clear
12:51 AM 41.0 °F - 39.9 °F 96% 30.29 in 2.0 mi Calm Calm - N/A   Clear
1:02 AM 41.0 °F - 39.2 °F 93% 30.28 in 1.8 mi Calm Calm - N/A   Clear
1:14 AM 41.0 °F - 39.2 °F 93% 30.28 in 2.0 mi Calm Calm - N/A   Clear
1:51 AM 41.0 °F - 39.9 °F 96% 30.28 in 2.0 mi Calm Calm - N/A   Mostly Cloudy
2:02 AM 39.2 °F - 39.2 °F 100% 30.27 in 1.8 mi Calm Calm - N/A   Mostly Cloudy
2:13 AM 41.0 °F - 39.2 °F 93% 30.27 in 2.0 mi Calm Calm - N/A   Scattered Clouds
2:51 AM 39.9 °F - 39.0 °F 97% 30.27 in 2.5 mi Calm Calm - N/A   Clear
3:51 AM 39.9 °F - 39.0 °F 97% 30.27 in 2.0 mi Calm Calm - N/A   Mostly Cloudy
4:51 AM 39.9 °F - 39.0 °F 97% 30.25 in 2.0 mi Calm Calm - N/A   Clear
5:14 AM 39.2 °F 37.0 °F 37.4 °F 93% 30.24 in 1.8 mi West 3.5 mph - N/A   Scattered Clouds
5:24 AM 39.2 °F - 39.2 °F 100% 30.24 in 2.0 mi Calm Calm - N/A   Mostly Cloudy
5:51 AM 39.9 °F - 39.0 °F 97% 30.25 in 2.0 mi Calm Calm - N/A   Partly Cloudy
6:51 AM 43.0 °F - 41.0 °F 93% 30.25 in 2.5 mi Calm Calm - N/A   Overcast
7:39 AM 44.6 °F - 42.8 °F 93% 30.24 in 1.5 mi Calm Calm - N/A   Overcast
7:51 AM 44.1 °F - 42.1 °F 93% 30.25 in 1.8 mi Calm Calm - N/A   Mostly Cloudy
8:16 AM 44.6 °F - 42.8 °F 93% 30.23 in 1.8 mi Calm Calm - N/A   Mostly Cloudy
8:36 AM 46.4 °F - 44.6 °F 93% 30.23 in 2.0 mi Calm Calm - N/A   Overcast
8:51 AM 48.0 °F - 46.0 °F 93% 30.24 in 2.0 mi Calm Calm - N/A   Overcast
9:25 AM 51.8 °F - 48.2 °F 88% 30.23 in 2.5 mi ESE 3.5 mph - N/A   Overcast
9:51 AM 52.0 °F - 48.9 °F 89% 30.24 in 2.0 mi SSE 3.5 mph - N/A   Overcast
10:36 AM 55.4 °F - 50.0 °F 82% 30.23 in 3.0 mi Calm Calm - N/A   Haze
10:47 AM 57.2 °F - 51.8 °F 82% 30.23 in 4.0 mi Variable 3.5 mph - N/A   Haze
10:51 AM 59.0 °F - 52.0 °F 78% 30.24 in 4.0 mi Variable 3.5 mph - N/A   Haze
11:09 AM 60.8 °F - 51.8 °F 72% 30.23 in 5.0 mi Calm Calm - N/A   Haze
11:51 AM 62.1 °F - 53.1 °F 72% 30.21 in 5.0 mi Calm Calm - N/A   Haze
12:51 PM 68.0 °F - 54.0 °F 61% 30.17 in 7.0 mi South 6.9 mph - N/A   Mostly Cloudy
1:51 PM 73.9 °F - 55.0 °F 52% 30.12 in 8.0 mi Variable 4.6 mph - N/A   Partly Cloudy
2:51 PM 73.0 °F - 55.9 °F 55% 30.09 in 6.0 mi South 6.9 mph - N/A   Haze
3:51 PM 73.4 °F - 57.2 °F 57% 30.08 in 9.0 mi South 6.9 mph - N/A   Overcast
4:51 PM 69.1 °F - 60.1 °F 73% 30.08 in 5.0 mi South 5.8 mph - 0.00 in Rain Light Rain
5:51 PM 68.0 °F - 59.0 °F 73% 30.06 in 8.0 mi SE 5.8 mph - 0.00 in   Overcast
6:51 PM 64.9 °F - 59.0 °F 81% 30.05 in 9.0 mi SE 4.6 mph - N/A   Partly Cloudy
7:51 PM 64.9 °F - 59.0 °F 81% 30.04 in 9.0 mi SE 4.6 mph - N/A   Overcast
8:51 PM 66.0 °F - 59.0 °F 78% 30.04 in 9.0 mi SSE 3.5 mph - N/A   Overcast
9:51 PM 66.9 °F - 60.1 °F 79% 30.02 in 9.0 mi SSE 4.6 mph - N/A   Overcast
10:51 PM 66.9 °F - 59.0 °F 76% 30.02 in 8.0 mi South 5.8 mph - N/A   Overcast
11:51 PM 66.9 °F - 57.9 °F 73% 30.00 in 9.0 mi South 10.4 mph 16.1 mph N/A   Overcast